Flag for Japan Weather past 2 weeks in Fukuoka, Japan

Now
70 °F

Partly cloudy.


Feels Like: 70 °F
Forecast: 71 / 78 °F
Wind: 6 mph from North

Location: Fukuoka Airport

Current Time: Oct 1, 2014 at 2:39:47 AM

Latest Report: Oct 1, 2014 at 2:00 AM


Visibility: N/A

Pressure: 29.98 "Hg

Humidity: 83%

Dew point: 64 °F

Location of FukuokaLocation

Historic Weather in Fukuoka — Graph

°F

Fukuoka temperature yesterday

Maximum temperature yesterday: 75 °F (at 3:00 PM)
Minimum temperature yesterday: 66 °F (at 10:00 AM)
Average temperature yesterday: 72 °F

Past Weeks' High & Low Weather Summary

 TemperatureHumidityPressure
High84 °F (Sep 16, 11:30 AM)100% (Sep 25, 12:30 AM)30.04 "Hg (Sep 25, 12:30 AM)
Low61 °F (Sep 20, 6:30 AM)37% (Sep 29, 11:00 AM)29.62 "Hg (Sep 24, 3:30 PM)
Average73 °F71%29.92 "Hg
* Reported Sep 16 1:00 AM — Oct 1 1:30 AM, Fukuoka, Weather by CustomWeather, © 2014

Note: Actual official high and low records may vary slightly from our data, if they occured in-between our weather recording intervals... More about our weather records

Advertising

Fukuoka weather history for previous 24 hours

 ConditionsComfort  
Time TempWeatherWind HumidityBarometerVisibility
1:30 AM
Oct 1
70 °FPassing clouds.6 mph83%29.98 "HgN/A
1:00 AM70 °FPassing clouds.5 mph83%29.98 "HgN/A
12:30 AM70 °FPartly cloudy.5 mph83%29.98 "HgN/A
12:00 AM72 °FPartly cloudy.7 mph78%29.98 "HgN/A
11:30 PM
Sep 30
72 °FPassing clouds.6 mph78%29.98 "HgN/A
11:00 PM72 °FPartly cloudy.7 mph78%29.98 "HgN/A
10:30 PM72 °FPassing clouds.9 mph78%29.98 "HgN/A
10:00 PM72 °FPassing clouds.9 mph83%29.98 "HgN/A
9:30 PM73 °FPassing clouds.7 mph74%29.98 "HgN/A
9:00 PM73 °FPartly cloudy.6 mph78%29.98 "HgN/A
8:30 PM73 °FPartly cloudy.7 mph78%29.98 "HgN/A
8:00 PM73 °FPassing clouds.6 mph74%29.98 "HgN/A
7:30 PM73 °FPassing clouds.5 mph74%29.95 "HgN/A
7:00 PM73 °FPassing clouds.5 mph69%29.95 "HgN/A
6:30 PM75 °FPassing clouds.6 mph65%29.95 "HgN/A
6:00 PM75 °FPartly sunny.6 mph65%29.95 "HgN/A
5:30 PM75 °FBroken clouds.7 mph65%29.95 "HgN/A
5:00 PM75 °FPartly sunny.6 mph69%29.92 "HgN/A
4:30 PM75 °FPartly sunny.6 mph69%29.92 "HgN/A
4:00 PM75 °FPartly sunny.3 mph69%29.92 "HgN/A
3:30 PM75 °FBroken clouds.5 mph74%29.92 "HgN/A
3:00 PM75 °FPartly sunny.2 mph74%29.92 "HgN/A
2:30 PM73 °FPartly sunny.3 mph78%29.92 "HgN/A
2:00 PM73 °FLight rain. Broken clouds.7 mph78%29.92 "HgN/A
1:30 PM73 °FLight rain. Mostly cloudy.2 mph74%29.92 "HgN/A
1:00 PM73 °FBroken clouds.3 mph74%29.92 "HgN/A
12:30 PM72 °FBroken clouds.1 mph73%29.92 "HgN/A
12:00 PM72 °FBroken clouds.5 mph69%29.95 "HgN/A
11:30 AM70 °FBroken clouds.6 mph83%29.95 "HgN/A
11:00 AM68 °FBroken clouds.3 mph83%29.95 "HgN/A
10:30 AM66 °FMostly cloudy.6 mph88%29.95 "HgN/A
10:00 AM66 °FLight rain. Mostly cloudy.6 mph88%29.95 "Hg5 mi
9:30 AM68 °FRain. Partly sunny.9 mph83%29.95 "Hg3 mi
9:00 AM72 °FRain. Fog.5 mph88%29.95 "Hg3 mi
8:30 AM73 °FLight rain. Partly sunny.5 mph78%29.95 "Hg5 mi
8:00 AM73 °FClear.3 mph74%29.92 "Hg6 mi
7:30 AM72 °FSunny.1 mph78%29.92 "Hg10 mi
7:00 AM72 °FBroken clouds.3 mph73%29.89 "HgN/A
6:30 AM72 °FSunny.5 mph78%29.89 "Hg10 mi
5:30 AM72 °FClear.5 mph78%29.89 "Hg10 mi
5:00 AM72 °FClear.2 mph78%29.89 "Hg10 mi
4:30 AM72 °FClear.5 mph78%29.86 "Hg10 mi
4:00 AM72 °FClear.3 mph78%29.86 "Hg10 mi
3:30 AM72 °FClear.1 mph78%29.89 "Hg10 mi
3:00 AM72 °FClear.1 mph78%29.86 "Hg10 mi
2:30 AM72 °FClear.2 mph78%29.89 "Hg10 mi
2:00 AM72 °FClear.2 mph78%29.89 "Hg10 mi
Weather by CustomWeather, © 2014

See weather overviewHow to use our weather pages